GW0719 Weather Reports


Display with metric or nautical units.
time (UTC)temp
F
wind
direction
speed
MPH
gust
MPH
rain 1hr
in
rain 24hr
in
rain mn
in
humidity
%
barometer
mb
20260510030803 52 175 0.0 0.0 0.00 0.00 0.00 10 1019.4
20260510030300 53 170 0.0 0.0 0.00 0.00 0.00 10 1019.6
20260510025758 53 171 0.0 0.0 0.00 0.00 0.00 10 1019.4
20260510025255 53 167 0.0 0.0 0.00 0.00 0.00 10 1019.2
20260510024751 54 127 0.0 0.0 0.00 0.00 0.00 10 1019.0
20260510024248 55 113 0.0 0.0 0.00 0.00 0.00 10 1019.2
20260510023744 55 95 0.0 0.0 0.00 0.00 0.00 10 1019.2
20260510023241 56 115 0.0 0.0 0.00 0.00 0.00 10 1019.2
20260510022738 57 118 0.0 0.0 0.00 0.00 0.00 10 1019.4
20260510022238 57 110 0.0 0.0 0.00 0.00 0.00 10 1019.2
20260510021732 58 120 0.0 0.0 0.00 0.00 0.00 10 1019.2
20260510021230 58 100 0.0 0.0 0.00 0.00 0.00 10 1019.2
20260510020731 59 95 0.0 0.0 0.00 0.00 0.00 10 1019.1
20260510020226 59 122 0.0 0.0 0.00 0.00 0.00 10 1019.1
20260510015722 59 123 0.0 0.0 0.00 0.00 0.00 10 1019.0
20260510015218 60 127 0.0 0.0 0.00 0.00 0.00 10 1019.0
20260510014713 61 131 0.0 0.0 0.00 0.00 0.00 10 1018.9
20260510014211 62 126 0.0 0.0 0.00 0.00 0.00 10 1018.9
20260510013706 62 124 0.0 0.0 0.00 0.00 0.00 10 1019.1
20260510013202 62 104 0.0 0.0 0.00 0.00 0.00 10 1019.2
20260510012702 62 105 0.0 0.0 0.00 0.00 0.00 10 1019.0
20260510012157 62 117 0.0 0.0 0.00 0.00 0.00 10 1019.0
20260510011652 62 95 0.0 0.0 0.00 0.00 0.00 10 1019.2
20260510011148 62 87 0.0 0.0 0.00 0.00 0.00 10 1019.1
20260510010644 62 78 0.0 0.0 0.00 0.00 0.00 10 1019.4
20260510010142 62 95 0.0 0.0 0.00 0.00 0.00 10 1019.4
20260510005637 63 78 0.0 0.0 0.00 0.00 0.00 10 1019.0
20260510005134 64 95 0.0 0.0 0.00 0.00 0.00 10 1019.2
20260510004633 62 62 0.0 0.0 0.00 0.00 0.00 10 1019.0
20260510004131 62 65 0.0 0.0 0.00 0.00 0.00 10 1019.1
20260510003628 62 57 0.0 0.0 0.00 0.00 0.00 10 1019.5
20260510003123 62 40 0.0 0.0 0.00 0.00 0.00 10 1019.4
20260510002618 63 23 0.0 0.0 0.00 0.00 0.00 10 1019.4
20260510002115 62 39 0.0 0.0 0.00 0.00 0.00 10 1019.2
20260510001612 62 45 0.0 0.0 0.00 0.00 0.00 10 1019.4
20260510001111 62 13 0.0 0.0 0.00 0.00 0.00 10 1019.2
20260510000611 63 24 0.0 0.0 0.00 0.00 0.00 10 1019.5
20260510000108 63 27 0.0 0.0 0.00 0.00 0.00 10 1019.1
20260509235604 63 343 0.0 0.0 0.00 0.00 0.00 10 1019.2
20260509235102 63 321 0.0 1.0 0.00 0.00 0.00 10 1019.0
20260509234557 63 330 0.0 1.0 0.00 0.00 0.00 10 1019.0
20260509234055 64 319 0.0 1.0 0.00 0.00 0.00 10 1019.0
20260509233553 64 39 0.0 0.0 0.00 0.00 0.00 10 1018.9
20260509233050 63 20 0.0 0.0 0.00 0.00 0.00 10 1019.1
20260509232546 64 51 0.0 0.0 0.00 0.00 0.00 10 1018.9
20260509232043 64 46 0.0 0.0 0.00 0.00 0.00 10 1019.1
20260509231539 63 50 0.0 0.0 0.00 0.00 0.00 10 1018.9
20260509231038 63 20 0.0 0.0 0.00 0.00 0.00 10 1019.1
20260509230534 63 25 0.0 0.0 0.00 0.00 0.00 10 1019.4
20260509230031 64 319 0.0 0.0 0.00 0.00 0.00 10 1019.1
20260509225526 64 21 0.0 0.0 0.00 0.00 0.00 10 1019.1
20260509225022 64 315 0.0 0.0 0.00 0.00 0.00 10 1019.0
20260509224518 64 63 0.0 0.0 0.00 0.00 0.00 10 1019.1
20260509224015 64 277 0.0 1.0 0.00 0.00 0.00 10 1019.2
20260509223512 64 230 0.0 0.0 0.00 0.00 0.00 10 1019.2
20260509223010 64 256 0.0 3.0 0.00 0.00 0.00 10 1019.2
20260509222505 64 276 0.0 1.0 0.00 0.00 0.00 10 1019.5
20260509222001 64 225 0.0 0.0 0.00 0.00 0.00 10 1019.0
20260509221457 63 346 0.0 0.0 0.00 0.00 0.00 10 1019.4
20260509220953 63 50 0.0 0.0 0.00 0.00 0.00 10 1019.4
20260509220449 63 303 0.0 1.0 0.00 0.00 0.00 10 1019.4
20260509215945 64 316 0.0 2.0 0.00 0.00 0.00 10 1019.5
20260509215441 64 57 0.0 0.0 0.00 0.00 0.00 10 1019.5
20260509214939 63 56 0.0 0.0 0.00 0.00 0.00 10 1019.4
20260509214436 63 326 0.0 0.0 0.00 0.00 0.00 10 1019.5
20260509213932 62 5 0.0 0.0 0.00 0.00 0.00 10 1019.7
20260509213428 62 316 0.0 0.0 0.00 0.00 0.00 10 1019.7
20260509212926 62 356 0.0 0.0 0.00 0.00 0.00 10 1019.4
20260509212423 62 330 0.0 1.0 0.00 0.00 0.00 10 1019.6
20260509211919 63 296 0.0 1.0 0.00 0.00 0.00 10 1019.8
20260509211415 63 260 0.0 0.0 0.00 0.00 0.00 10 1019.5
20260509210911 64 322 0.0 0.0 0.00 0.00 0.00 10 1019.5
20260509210409 64 34 0.0 0.0 0.00 0.00 0.00 10 1019.7
20260509205904 63 43 0.0 0.0 0.00 0.00 0.00 10 1019.6
20260509205403 64 42 0.0 0.0 0.00 0.00 0.00 10 1019.7
20260509204900 64 52 0.0 0.0 0.00 0.00 0.00 10 1019.7
20260509204356 64 54 0.0 0.0 0.00 0.00 0.00 10 1019.5
20260509203853 64 76 0.0 0.0 0.00 0.00 0.00 10 1019.4
20260509203349 62 345 0.0 0.0 0.00 0.00 0.00 10 1019.5
20260509202847 63 312 0.0 0.0 0.00 0.00 0.00 10 1019.6
20260509202342 64 52 0.0 0.0 0.00 0.00 0.00 10 1019.4
20260509201837 63 304 0.0 0.0 0.00 0.00 0.00 10 1019.1
20260509201333 63 33 0.0 0.0 0.00 0.00 0.00 10 1019.7
20260509200830 62 347 0.0 0.0 0.00 0.00 0.00 10 1019.2
20260509200326 62 324 0.0 0.0 0.00 0.00 0.00 10 1019.6
20260509195823 64 306 0.0 1.0 0.00 0.00 0.00 10 1019.6
20260509195322 63 41 0.0 0.0 0.00 0.00 0.00 10 1019.5
20260509194822 64 248 0.0 1.0 0.00 0.00 0.00 10 1019.6
20260509194319 64 239 0.0 0.0 0.00 0.00 0.00 10 1019.5
20260509193815 63 261 0.0 0.0 0.00 0.00 0.00 10 1019.5
20260509193315 63 67 0.0 0.0 0.00 0.00 0.00 10 1019.8
20260509192812 63 89 0.0 0.0 0.00 0.00 0.00 10 1019.4
20260509192308 62 65 0.0 0.0 0.00 0.00 0.00 10 1019.5
20260509191803 62 54 0.0 0.0 0.00 0.00 0.00 10 1019.7
20260509191259 62 51 0.0 0.0 0.00 0.00 0.00 10 1019.5
20260509190755 62 43 0.0 0.0 0.00 0.00 0.00 10 1019.7
20260509190253 63 47 0.0 0.0 0.00 0.00 0.00 10 1019.6
20260509185750 62 77 0.0 0.0 0.00 0.00 0.00 10 1019.7
20260509185246 61 68 0.0 0.0 0.00 0.00 0.00 10 1019.4
20260509184743 62 95 0.0 0.0 0.00 0.00 0.00 10 1019.4
20260509184241 61 152 0.0 1.0 0.00 0.00 0.00 10 1019.5
20260509183737 63 104 0.0 0.0 0.00 0.00 0.00 10 1019.6
20260509183232 62 49 0.0 0.0 0.00 0.00 0.00 10 1019.6
20260509182728 62 50 0.0 0.0 0.00 0.00 0.00 10 1019.5
20260509182226 61 49 0.0 0.0 0.00 0.00 0.00 10 1019.4
20260509181723 62 44 0.0 0.0 0.00 0.00 0.00 10 1019.5
20260509181220 62 52 0.0 0.0 0.00 0.00 0.00 10 1019.6
20260509180717 61 57 0.0 0.0 0.00 0.00 0.00 10 1019.6
20260509180213 61 54 0.0 0.0 0.00 0.00 0.00 10 1019.5
20260509175710 62 52 0.0 0.0 0.00 0.00 0.00 10 1019.7
20260509175207 63 355 0.0 0.0 0.00 0.00 0.00 10 1019.2
20260509174702 63 258 0.0 0.0 0.00 0.00 0.00 10 1019.4
20260509174157 63 290 0.0 0.0 0.00 0.00 0.00 10 1019.2
20260509173653 62 51 0.0 0.0 0.00 0.00 0.00 10 1019.2
20260509173149 62 52 0.0 0.0 0.00 0.00 0.00 10 1019.4
20260509172646 61 325 0.0 0.0 0.00 0.00 0.00 10 1019.5
20260509172142 61 350 0.0 0.0 0.00 0.00 0.00 10 1019.2
20260509171638 61 5 0.0 0.0 0.00 0.00 0.00 10 1018.9
20260509171134 61 38 0.0 0.0 0.00 0.00 0.00 10 1019.4
20260509170631 61 358 0.0 0.0 0.00 0.00 0.00 10 1019.1
20260509170127 62 74 0.0 0.0 0.00 0.00 0.00 10 1019.2
20260509165625 61 68 0.0 0.0 0.00 0.00 0.00 10 1019.2
20260509165121 60 57 0.0 0.0 0.00 0.00 0.00 10 1019.4
20260509164617 60 54 0.0 0.0 0.00 0.00 0.00 10 1019.4
20260509164113 60 48 0.0 0.0 0.00 0.00 0.00 10 1019.1
20260509163611 61 80 0.0 0.0 0.00 0.00 0.00 10 1019.1
20260509163106 60 41 0.0 0.0 0.00 0.00 0.00 10 1019.1
20260509162604 60 50 0.0 0.0 0.00 0.00 0.00 10 1019.2
20260509162100 60 55 0.0 0.0 0.00 0.00 0.00 10 1019.1
20260509161556 60 92 0.0 0.0 0.00 0.00 0.00 10 1019.1
20260509161051 60 47 0.0 0.0 0.00 0.00 0.00 10 1019.1
20260509160547 60 48 0.0 0.0 0.00 0.00 0.00 10 1018.9
20260509160042 59 39 0.0 0.0 0.00 0.00 0.00 10 1018.7
20260509155539 59 41 0.0 0.0 0.00 0.00 0.00 10 1018.9
20260509155035 59 7 0.0 0.0 0.00 0.00 0.00 10 1018.7
20260509154531 58 36 0.0 0.0 0.00 0.00 0.00 10 1018.8
20260509154029 58 36 0.0 0.0 0.00 0.00 0.00 10 1018.8
20260509153526 57 45 0.0 0.0 0.00 0.00 0.00 10 1018.7
20260509153023 57 4 0.0 0.0 0.00 0.00 0.00 10 1018.7
20260509152519 57 45 0.0 0.0 0.00 0.00 0.00 10 1018.6
20260509152015 56 49 0.0 0.0 0.00 0.00 0.00 10 1018.8
20260509151512 56 51 0.0 0.0 0.00 0.00 0.00 10 1018.7
20260509151010 56 44 0.0 0.0 0.00 0.00 0.00 10 1018.6
20260509150507 56 79 0.0 0.0 0.00 0.00 0.00 10 1018.6
20260509150006 55 55 0.0 0.0 0.00 0.00 0.00 10 1018.6
20260509145501 55 64 0.0 0.0 0.00 0.00 0.00 10 1018.7
20260509144956 55 64 0.0 0.0 0.00 0.00 0.00 10 1018.5
20260509144453 54 61 0.0 0.0 0.00 0.00 0.00 10 1018.4
20260509143950 54 59 0.0 0.0 0.00 0.00 0.00 10 1018.1
20260509143447 54 69 0.0 0.0 0.00 0.00 0.00 10 1018.5
20260509142944 53 62 0.0 0.0 0.00 0.00 0.00 10 1018.3
20260509142440 53 64 0.0 0.0 0.00 0.00 0.00 10 1018.4
20260509141936 53 55 0.0 0.0 0.00 0.00 0.00 10 1018.3
20260509141433 52 55 0.0 0.0 0.00 0.00 0.00 10 1018.1
20260509140930 52 53 0.0 0.0 0.00 0.00 0.00 10 1018.0
20260509140426 52 62 0.0 0.0 0.00 0.00 0.00 10 1018.1
20260509135924 52 56 0.0 0.0 0.00 0.00 0.00 10 1017.9
20260509135421 51 46 0.0 0.0 0.00 0.00 0.00 10 1018.1
20260509134919 51 59 0.0 0.0 0.00 0.00 0.00 10 1018.1
20260509134416 51 63 0.0 0.0 0.00 0.00 0.00 10 1017.9
20260509133913 51 48 0.0 0.0 0.00 0.00 0.00 10 1017.8
20260509133410 51 51 0.0 0.0 0.00 0.00 0.00 10 1017.9
20260509132908 50 56 0.0 0.0 0.00 0.00 0.00 10 1017.8
20260509132406 50 71 0.0 0.0 0.00 0.00 0.00 10 1017.7
20260509131903 50 45 0.0 0.0 0.00 0.00 0.00 10 1017.7
20260509131400 50 48 0.0 0.0 0.00 0.00 0.00 10 1017.6
20260509130856 50 45 0.0 0.0 0.00 0.00 0.00 10 1017.8
20260509130351 50 43 0.0 0.0 0.00 0.00 0.00 10 1017.9
20260509125849 50 45 0.0 0.0 0.00 0.00 0.00 10 1017.7
20260509125345 49 37 0.0 0.0 0.00 0.00 0.00 10 1017.6
20260509124841 49 44 0.0 0.0 0.00 0.00 0.00 10 1017.5
20260509124338 49 34 0.0 0.0 0.00 0.00 0.00 10 1017.5
20260509123836 48 38 0.0 0.0 0.00 0.00 0.00 10 1017.5
20260509123333 49 1 0.0 0.0 0.00 0.00 0.00 10 1017.6
20260509122828 49 328 0.0 0.0 0.00 0.00 0.00 10 1017.3
20260509122326 49 10 0.0 0.0 0.00 0.00 0.00 10 1017.3
20260509121823 48 272 0.0 1.0 0.00 0.00 0.00 10 1017.3
20260509121320 49 43 0.0 0.0 0.00 0.00 0.00 10 1016.9
20260509120818 49 11 0.0 0.0 0.00 0.00 0.00 10 1016.8
20260509120316 49 57 0.0 0.0 0.00 0.00 0.00 10 1017.0
20260509115814 49 69 0.0 0.0 0.00 0.00 0.00 10 1016.5
20260509115310 49 63 0.0 0.0 0.00 0.00 0.00 10 1016.7
20260509114808 48 52 0.0 0.0 0.00 0.00 0.00 10 1016.7
20260509114307 48 37 0.0 0.0 0.00 0.00 0.00 10 1016.4
20260509113806 48 38 0.0 0.0 0.00 0.00 0.00 10 1016.5
20260509113302 49 53 0.0 0.0 0.00 0.00 0.00 10 1016.2
20260509112759 49 46 0.0 0.0 0.00 0.00 0.00 10 1016.3
20260509112256 49 46 0.0 0.0 0.00 0.00 0.00 10 1016.4
20260509111753 49 51 0.0 0.0 0.00 0.00 0.00 10 1016.4
20260509111250 49 60 0.0 0.0 0.00 0.00 0.00 10 1016.1
20260509110747 49 41 0.0 0.0 0.00 0.00 0.00 10 1015.8
20260509110244 49 44 0.0 0.0 0.00 0.00 0.00 10 1015.9
20260509105742 49 45 0.0 0.0 0.00 0.00 0.00 10 1015.9
20260509105239 50 42 0.0 0.0 0.00 0.00 0.00 10 1015.9
20260509104736 50 46 0.0 0.0 0.00 0.00 0.00 10 1015.9
20260509104233 50 40 0.0 0.0 0.00 0.00 0.00 10 1016.1
20260509103731 50 36 0.0 1.0 0.00 0.00 0.00 10 1015.8
20260509103228 49 54 0.0 0.0 0.00 0.00 0.00 10 1015.9
20260509102726 48 51 0.0 0.0 0.00 0.00 0.00 10 1015.8
20260509102223 49 51 0.0 0.0 0.00 0.00 0.00 10 1015.7
20260509101719 49 51 0.0 0.0 0.00 0.00 0.00 10 1015.6
20260509101216 50 48 0.0 0.0 0.00 0.00 0.00 10 1015.6
20260509100713 49 48 0.0 0.0 0.00 0.00 0.00 10 1015.4
20260509100210 48 48 0.0 0.0 0.00 0.00 0.00 10 1015.4
20260509095707 49 48 0.0 0.0 0.00 0.00 0.00 10 1015.4
20260509095204 49 37 0.0 0.0 0.00 0.00 0.00 10 1015.7
20260509094701 49 44 0.0 0.0 0.00 0.00 0.00 10 1015.4
20260509094158 49 38 0.0 0.0 0.00 0.00 0.00 10 1015.1
20260509093656 49 19 0.0 0.0 0.00 0.00 0.00 10 1015.6
20260509093153 49 38 0.0 0.0 0.00 0.00 0.00 10 1015.3
20260509092651 49 30 0.0 0.0 0.00 0.00 0.00 10 1015.2
20260509092149 50 32 0.0 0.0 0.00 0.00 0.00 10 1015.2
20260509091647 50 42 0.0 0.0 0.00 0.00 0.00 10 1015.2
20260509091143 51 52 0.0 0.0 0.00 0.00 0.00 10 1015.0
20260509090641 51 51 0.0 0.0 0.00 0.00 0.00 10 1015.0
20260509090138 50 47 0.0 0.0 0.00 0.00 0.00 10 1014.8
20260509085635 50 49 0.0 0.0 0.00 0.00 0.00 10 1015.1
20260509085131 50 49 0.0 0.0 0.00 0.00 0.00 10 1015.1
20260509084628 50 46 0.0 0.0 0.00 0.00 0.00 10 1015.1
20260509084125 50 46 0.0 0.0 0.00 0.00 0.00 10 1015.0
20260509083623 49 37 0.0 0.0 0.00 0.00 0.00 10 1015.0
20260509083119 50 35 0.0 0.0 0.00 0.00 0.00 10 1015.0
20260509082617 50 23 0.0 0.0 0.00 0.00 0.00 10 1014.8
20260509082113 50 1 0.0 0.0 0.00 0.00 0.00 10 1014.7
20260509081611 50 334 0.0 0.0 0.00 0.00 0.00 10 1015.0
20260509081107 51 21 0.0 0.0 0.00 0.00 0.00 10 1014.8
20260509080605 50 49 0.0 0.0 0.00 0.00 0.00 10 1014.6
20260509075601 50 49 0.0 0.0 0.00 0.00 0.00 10 1014.7
20260509075058 50 36 0.0 0.0 0.00 0.00 0.00 10 1014.6
20260509074555 50 22 0.0 0.0 0.00 0.00 0.00 10 1014.7
20260509074051 50 15 0.0 0.0 0.00 0.00 0.00 10 1014.6
20260509073548 52 31 0.0 0.0 0.00 0.00 0.00 10 1014.5
20260509073045 52 2 0.0 0.0 0.00 0.00 0.00 10 1014.5
20260509072541 53 10 0.0 0.0 0.00 0.00 0.00 10 1014.4
20260509072038 53 352 0.0 0.0 0.00 0.00 0.00 10 1014.2
20260509071535 53 33 0.0 0.0 0.00 0.00 0.00 10 1014.3
20260509071033 54 56 0.0 0.0 0.00 0.00 0.00 10 1014.1
20260509070530 54 52 0.0 0.0 0.00 0.00 0.00 10 1013.9
20260509070026 54 62 0.0 0.0 0.00 0.00 0.00 10 1014.0
20260509065521 54 81 0.0 0.0 0.00 0.00 0.00 10 1014.0
20260509065018 54 100 0.0 0.0 0.00 0.00 0.00 10 1013.9
20260509064515 54 78 0.0 0.0 0.00 0.00 0.00 10 1013.9
20260509064013 54 75 0.0 0.0 0.00 0.00 0.00 10 1013.9
20260509063508 54 70 0.0 0.0 0.00 0.00 0.00 10 1013.7
20260509063006 54 49 0.0 0.0 0.00 0.00 0.00 10 1013.9
20260509062503 54 39 0.0 0.0 0.00 0.00 0.00 10 1014.1
20260509062001 53 39 0.0 0.0 0.00 0.00 0.00 10 1014.0
20260509061457 53 22 0.0 0.0 0.00 0.00 0.00 10 1013.7
20260509060954 53 23 0.0 0.0 0.00 0.00 0.00 10 1014.0
20260509060452 53 27 0.0 0.0 0.00 0.00 0.00 10 1013.9
20260509055948 53 51 0.0 0.0 0.00 0.00 0.00 10 1013.7
20260509055443 54 54 0.0 0.0 0.00 0.00 0.00 10 1013.5
20260509054939 54 49 0.0 0.0 0.00 0.00 0.00 10 1013.6
20260509054436 54 49 0.0 0.0 0.00 0.00 0.00 10 1013.5
20260509053934 55 51 0.0 0.0 0.00 0.00 0.00 10 1013.2
20260509053432 55 52 0.0 0.0 0.00 0.00 0.00 10 1013.5
20260509052929 55 44 0.0 0.0 0.00 0.00 0.00 10 1013.4
20260509052427 55 42 0.0 0.0 0.00 0.00 0.00 10 1013.2
20260509051925 55 42 0.0 0.0 0.00 0.00 0.00 10 1013.3
20260509051422 55 38 0.0 0.0 0.00 0.00 0.00 10 1013.1
20260509050919 55 37 0.0 0.0 0.00 0.00 0.00 10 1013.3
20260509050416 55 47 0.0 0.0 0.00 0.00 0.00 10 1013.0
20260509045912 56 49 0.0 0.0 0.00 0.00 0.00 10 1013.1
20260509045409 56 41 0.0 0.0 0.00 0.00 0.00 10 1012.9
20260509044906 57 40 0.0 0.0 0.00 0.00 0.00 10 1013.0
20260509044404 57 37 0.0 0.0 0.00 0.00 0.00 10 1012.7
20260509043901 57 40 0.0 0.0 0.00 0.00 0.00 10 1012.9
20260509043356 58 32 0.0 0.0 0.00 0.00 0.00 10 1012.6
20260509042852 58 35 0.0 0.0 0.00 0.00 0.00 10 1012.5
20260509042349 58 30 0.0 0.0 0.00 0.00 0.00 10 1012.3
20260509041846 58 27 0.0 0.0 0.00 0.00 0.00 10 1012.6
20260509041343 58 41 0.0 0.0 0.00 0.00 0.00 10 1012.2
20260509040841 57 22 0.0 0.0 0.00 0.00 0.00 10 1012.3
20260509040339 56 20 0.0 0.0 0.00 0.00 0.00 10 1011.9
20260509035835 56 19 0.0 0.0 0.00 0.00 0.00 10 1011.8
20260509035333 57 9 0.0 0.0 0.00 0.00 0.00 10 1011.8
20260509034828 58 8 0.0 0.0 0.00 0.00 0.00 10 1011.9
20260509034327 59 25 0.0 0.0 0.00 0.00 0.00 10 1011.6
20260509033823 59 27 0.0 0.0 0.00 0.00 0.00 10 1011.4
20260509033320 59 29 0.0 0.0 0.00 0.00 0.00 10 1011.4
20260509032817 59 27 0.0 0.0 0.00 0.00 0.00 10 1011.4
20260509032314 60 41 0.0 0.0 0.00 0.00 0.00 10 1011.5
20260509031812 60 33 0.0 0.0 0.00 0.00 0.00 10 1011.3
20260509031309 60 33 0.0 0.0 0.00 0.00 0.00 10 1011.2